When you browse on this site, cookies collect data to enhance your experience and personalize the content and advertising you see.
Visit our Privacy Policy to learn more. By continuing to use the site, you agree to this use of cookies and data.
  • In Czech Republic
  • List of Countries
  • For 7 days
  • Water Temperature
  • Weather Map
  • Weather Widgets
  • user-avatar
    Login

    Hourly Weather Trujillo

    Today, 18 January, Saturday

    Time Temperature Precipitation Wind Pressure Humidity
    00:00 +22°C° 0 mm 3 mps 762 mmHg 99%
    01:00 +22°C° 0.3 mm 3 mps 761 mmHg 98%
    02:00 +23°C° 0.3 mm 2 mps 761 mmHg 98%
    03:00 +21°C° 0.3 mm 2 mps 761 mmHg 98%
    04:00 +21°C° 0.1 mm 2 mps 761 mmHg 98%
    05:00 +21°C° 0.1 mm 2 mps 761 mmHg 98%
    06:00 +21°C° 0.1 mm 2 mps 761 mmHg 98%
    07:00 +24°C° 0.1 mm 2 mps 762 mmHg 89%
    08:00 +27°C° 0.1 mm 2 mps 762 mmHg 80%
    09:00 +29°C° 0.1 mm 2 mps 763 mmHg 71%
    10:00 +29°C° 0.5 mm 2 mps 763 mmHg 77%
    11:00 +28°C° 0.5 mm 3 mps 762 mmHg 84%
    12:00 +28°C° 0.5 mm 4 mps 762 mmHg 91%
    13:00 +28°C° 0.6 mm 5 mps 761 mmHg 90%
    14:00 +28°C° 0.6 mm 5 mps 760 mmHg 89%
    15:00 +28°C° 0.6 mm 6 mps 760 mmHg 88%
    16:00 +27°C° 0.1 mm 6 mps 760 mmHg 91%
    17:00 +26°C° 0.1 mm 5 mps 760 mmHg 93%
    18:00 +23°C° 0.1 mm 5 mps 760 mmHg 96%
    19:00 +23°C° 0 mm 5 mps 761 mmHg 97%
    20:00 +23°C° 0 mm 5 mps 761 mmHg 97%
    21:00 +22°C° 0 mm 5 mps 762 mmHg 98%
    22:00 +22°C° 0 mm 4 mps 761 mmHg 98%
    23:00 +22°C° 0 mm 4 mps 761 mmHg 98%

    Tomorrow, 19 January, Sunday

    Time Temperature Precipitation Wind Pressure Humidity
    00:00 +21°C° 0 mm 3 mps 761 mmHg 98%
    01:00 +21°C° 0 mm 3 mps 761 mmHg 98%
    02:00 +21°C° 0 mm 2 mps 761 mmHg 98%
    03:00 +21°C° 0 mm 2 mps 760 mmHg 98%
    04:00 +21°C° 0 mm 2 mps 761 mmHg 97%
    05:00 +20°C° 0 mm 2 mps 761 mmHg 97%
    06:00 +20°C° 0 mm 2 mps 761 mmHg 97%
    07:00 +24°C° 0 mm 2 mps 761 mmHg 86%
    08:00 +26°C° 0 mm 2 mps 762 mmHg 75%
    09:00 +29°C° 0 mm 2 mps 762 mmHg 64%
    10:00 +30°C° 0 mm 2 mps 762 mmHg 58%
    11:00 +32°C° 0 mm 2 mps 761 mmHg 53%
    12:00 +35°C° 0 mm 2 mps 761 mmHg 47%
    13:00 +32°C° 0.2 mm 2 mps 760 mmHg 59%
    14:00 +30°C° 0.2 mm 2 mps 760 mmHg 71%
    15:00 +29°C° 0.2 mm 2 mps 759 mmHg 83%
    16:00 +27°C° 0.3 mm 1 mps 760 mmHg 87%
    17:00 +26°C° 0.3 mm 1 mps 760 mmHg 92%
    18:00 +25°C° 0.3 mm 1 mps 761 mmHg 96%
    19:00 +24°C° 0.2 mm 1 mps 761 mmHg 96%
    20:00 +24°C° 0.2 mm 1 mps 762 mmHg 97%
    21:00 +23°C° 0.2 mm 1 mps 762 mmHg 98%
    22:00 +23°C° 0.2 mm 1 mps 762 mmHg 98%
    23:00 +23°C° 0.2 mm 2 mps 762 mmHg 98%

    Day after tomorrow, 20 January, Monday

    Time Temperature Precipitation Wind Pressure Humidity
    00:00 +23°C° 0.2 mm 2 mps 762 mmHg 98%
    01:00 +23°C° 0.1 mm 2 mps 761 mmHg 98%
    02:00 +23°C° 0.1 mm 2 mps 761 mmHg 98%
    03:00 +21°C° 0.1 mm 2 mps 761 mmHg 98%
    04:00 +21°C° 0 mm 2 mps 761 mmHg 98%
    05:00 +21°C° 0 mm 2 mps 761 mmHg 98%
    06:00 +21°C° 0 mm 2 mps 762 mmHg 98%
    07:00 +24°C° 0.2 mm 2 mps 762 mmHg 90%
    08:00 +26°C° 0.2 mm 2 mps 763 mmHg 82%
    09:00 +28°C° 0.2 mm 2 mps 763 mmHg 74%
    10:00 +30°C° 0.2 mm 3 mps 763 mmHg 66%
    11:00 +32°C° 0.2 mm 4 mps 762 mmHg 59%
    12:00 +33°C° 0.2 mm 4 mps 762 mmHg 51%
    13:00 +33°C° 0.2 mm 4 mps 762 mmHg 55%
    14:00 +32°C° 0.2 mm 4 mps 761 mmHg 59%
    15:00 +30°C° 0.2 mm 4 mps 761 mmHg 63%
    16:00 +28°C° 0.5 mm 4 mps 761 mmHg 72%
    17:00 +26°C° 0.5 mm 4 mps 761 mmHg 81%
    18:00 +23°C° 0.5 mm 4 mps 762 mmHg 90%
    19:00 +23°C° 0.9 mm 4 mps 762 mmHg 92%
    20:00 +24°C° 0.9 mm 3 mps 762 mmHg 93%
    21:00 +22°C° 0.9 mm 3 mps 763 mmHg 94%
    22:00 +22°C° 0.8 mm 3 mps 763 mmHg 94%
    23:00 +22°C° 0.8 mm 3 mps 762 mmHg 95%

    21 January, Tuesday

    Time Temperature Precipitation Wind Pressure Humidity
    00:00 +22°C° 0.8 mm 4 mps 762 mmHg 95%
    01:00 +22°C° 1 mm 3 mps 762 mmHg 95%
    02:00 +22°C° 1 mm 3 mps 762 mmHg 94%
    03:00 +22°C° 1 mm 3 mps 761 mmHg 94%
    04:00 +22°C° 1.1 mm 3 mps 762 mmHg 95%
    05:00 +22°C° 1.1 mm 3 mps 762 mmHg 96%
    06:00 +22°C° 1.1 mm 4 mps 762 mmHg 97%
    07:00 +23°C° 0.8 mm 4 mps 762 mmHg 92%
    08:00 +25°C° 0.8 mm 4 mps 763 mmHg 88%
    09:00 +27°C° 0.8 mm 4 mps 763 mmHg 83%
    10:00 +27°C° 1.1 mm 4 mps 763 mmHg 86%
    11:00 +27°C° 1.1 mm 4 mps 762 mmHg 89%
    12:00 +27°C° 1.1 mm 4 mps 762 mmHg 92%
    13:00 +27°C° 1.2 mm 4 mps 761 mmHg 92%
    14:00 +26°C° 1.2 mm 4 mps 761 mmHg 93%
    15:00 +26°C° 1.2 mm 4 mps 760 mmHg 93%
    16:00 +25°C° 1.1 mm 4 mps 760 mmHg 95%
    17:00 +25°C° 1.1 mm 3 mps 761 mmHg 96%
    18:00 +24°C° 1.1 mm 3 mps 761 mmHg 98%
    19:00 +23°C° 1.9 mm 4 mps 761 mmHg 98%
    20:00 +23°C° 1.9 mm 4 mps 762 mmHg 98%
    21:00 +23°C° 1.9 mm 5 mps 763 mmHg 98%
    22:00 +23°C° 1.8 mm 5 mps 762 mmHg 99%
    23:00 +23°C° 1.8 mm 5 mps 762 mmHg 99%

    22 January, Wednesday

    Time Temperature Precipitation Wind Pressure Humidity
    00:00 +23°C° 1.8 mm 6 mps 762 mmHg 99%
    01:00 +22°C° 0.9 mm 5 mps 761 mmHg 99%
    02:00 +22°C° 0.9 mm 4 mps 761 mmHg 98%
    03:00 +22°C° 0.9 mm 4 mps 761 mmHg 98%
    04:00 +22°C° 0.2 mm 3 mps 761 mmHg 98%
    05:00 +22°C° 0.2 mm 3 mps 762 mmHg 97%
    06:00 +23°C° 0.2 mm 2 mps 762 mmHg 97%
    07:00 +24°C° 0.1 mm 2 mps 762 mmHg 93%
    08:00 +25°C° 0.1 mm 2 mps 763 mmHg 88%
    09:00 +26°C° 0.1 mm 2 mps 763 mmHg 84%
    10:00 +26°C° 0.2 mm 3 mps 763 mmHg 81%
    11:00 +27°C° 0.2 mm 3 mps 762 mmHg 78%
    12:00 +27°C° 0.2 mm 3 mps 762 mmHg 75%
    13:00 +26°C° 0.2 mm 3 mps 761 mmHg 79%
    14:00 +26°C° 0.2 mm 3 mps 761 mmHg 84%
    15:00 +25°C° 0.2 mm 3 mps 760 mmHg 89%
    16:00 +24°C° 0.1 mm 3 mps 760 mmHg 91%
    17:00 +24°C° 0.1 mm 3 mps 760 mmHg 94%
    18:00 +22°C° 0.1 mm 3 mps 761 mmHg 97%
    19:00 +22°C° 0 mm 3 mps 761 mmHg 97%
    20:00 +22°C° 0 mm 3 mps 762 mmHg 97%
    21:00 +21°C° 0 mm 3 mps 762 mmHg 97%
    22:00 +21°C° 0 mm 3 mps 762 mmHg 97%
    23:00 +21°C° 0 mm 3 mps 762 mmHg 97%

    23 January, Thursday

    Time Temperature Precipitation Wind Pressure Humidity
    00:00 +21°C° 0 mm 3 mps 761 mmHg 97%
    01:00 +21°C° 0 mm 2 mps 761 mmHg 97%
    02:00 +21°C° 0 mm 2 mps 761 mmHg 96%
    03:00 +21°C° 0 mm 2 mps 760 mmHg 96%
    04:00 +21°C° 0 mm 2 mps 761 mmHg 95%
    05:00 +21°C° 0 mm 2 mps 761 mmHg 95%
    06:00 +21°C° 0 mm 2 mps 761 mmHg 94%
    07:00 +23°C° 0 mm 2 mps 761 mmHg 86%
    08:00 +25°C° 0 mm 2 mps 762 mmHg 78%
    09:00 +26°C° 0 mm 2 mps 762 mmHg 70%
    10:00 +27°C° 0 mm 2 mps 762 mmHg 64%
    11:00 +29°C° 0 mm 3 mps 761 mmHg 58%
    12:00 +30°C° 0 mm 3 mps 760 mmHg 52%
    13:00 +30°C° 0 mm 4 mps 760 mmHg 54%
    14:00 +30°C° 0 mm 4 mps 759 mmHg 56%
    15:00 +29°C° 0 mm 5 mps 758 mmHg 58%
    16:00 +27°C° 0 mm 4 mps 758 mmHg 67%
    17:00 +25°C° 0 mm 4 mps 759 mmHg 76%
    18:00 +22°C° 0 mm 4 mps 759 mmHg 86%
    19:00 +22°C° 0 mm 4 mps 759 mmHg 88%
    20:00 +21°C° 0 mm 4 mps 760 mmHg 91%
    21:00 +21°C° 0 mm 4 mps 760 mmHg 93%
    22:00 +20°C° 0 mm 3 mps 760 mmHg 94%
    23:00 +20°C° 0 mm 3 mps 760 mmHg 94%
    Show more